This demonstration page uses our WeatherBlox Daily Observations layout. Learn more.

Left ArrowRight Arrow

Hourly Observations for July 18, 2020

Temp ( °F °C ) Dew Point ( °F °C ) Humidity (%) Winds ( mph kmh ) Pressure ( in mb ) Visibility ( mi km ) Precip ( " mm )
12:51 am 00:51 Clear 79 26.1 53 11.7 41 41 W 7 11 29.83 1010 10 16.0934 0 0
1:51 am 01:51 Clear 77 25 52 11.1 42 42 WNW 6 9 29.83 1010 10 16.0934 0 0
2:51 am 02:51 Clear 75 23.9 52 11.1 45 45 NNE 7 11 29.83 1010 10 16.0934 0 0
3:51 am 03:51 Clear 74 23.3 52 11.1 46 46 SSE 6 9 29.84 1011 10 16.0934 0 0
4:51 am 04:51 Clear 73 22.8 52 11.1 48 48 NNE 5 7 29.84 1011 10 16.0934 0 0
5:51 am 05:51 Sunny 73 22.8 51 10.6 46 46 ENE 3 6 29.86 1011 10 16.0934 0 0
6:51 am 06:51 Sunny 76 24.4 53 11.7 45 45 SSE 5 7 29.88 1012 10 16.0934 0 0
7:51 am 07:51 Mostly Sunny 81 27.2 54 12.2 39 39 S 6 9 29.89 1012 10 16.0934 0 0
8:51 am 08:51 Mostly Cloudy 87 30.6 53 11.7 31 31 SE 5 7 29.89 1012 10 16.0934 0 0
9:51 am 09:51 Sunny 91 32.8 53 11.7 27 27 WNW 6 9 29.87 1012 10 16.0934 0 0
10:51 am 10:51 Sunny 96 35.6 52 11.1 23 23 WNW 9 15 29.85 1011 10 16.0934 0 0
11:51 am 11:51 Sunny 98 36.7 51 10.6 20 20 NW 5 7 29.82 1010 10 16.0934 0 0
12:51 pm 12:51 Sunny 100 37.8 50 10 18 18 W 12 19 29.78 1009 10 16.0934 0 0
1:51 pm 13:51 Sunny 101 38.3 49 9.4 17 17 Calm 29.75 1007 10 16.0934 0 0
2:51 pm 14:51 Sunny 102 38.9 48 8.9 16 16 SW 7 11 29.72 1006 10 16.0934 0 0
3:51 pm 15:51 Sunny 105 40.6 48 8.9 15 15 WNW 10 17 29.68 1005 10 16.0934 0 0
4:51 pm 16:51 Sunny 104 40 47 8.3 15 15 W 16 26 29.66 1005 10 16.0934 0 0
5:51 pm 17:51 Sunny 105 40.6 48 8.9 15 15 NW 13 20 29.67 1005 10 16.0934 0 0
6:51 pm 18:51 Sunny 93 33.9 53 11.7 26 26 NE 25 41 29.72 1006 10 16.0934 0 0
7:51 pm 19:51 Clear 93 33.9 51 10.6 24 24 NE 13 20 29.74 1007 10 16.0934 0 0
8:51 pm 20:51 Mostly Clear 88 31.1 56 13.3 34 34 SSW 12 19 29.74 1007 10 16.0934 0 0
9:51 pm 21:51 Clear 89 31.7 55 12.8 31 31 NNE 5 7 29.76 1008 10 16.0934 0 0
10:51 pm 22:51 Clear 86 30 55 12.8 35 35 E 7 11 29.76 1008 10 16.0934 0 0
11:51 pm 23:51 Clear 84 28.9 57 13.9 40 40 S 5 7 29.76 1008 10 16.0934 0 0

Powered by AerisWeather